Weather History for Prague, Czech Republic

Change the Weather History Date:

Saturday, March 23, 2013

  Actual Average Record
Temperature  
Mean Temperature 22 °F -  
Max Temperature 30 °F 54 °F 60 °F (2012)
Min Temperature 15 °F 35 °F 15 °F (2013)
Degree Days  
Heating Degree Days 42    
Moisture  
Dew Point 13 °F    
Average Humidity 64    
Maximum Humidity 80    
Minimum Humidity 36    
Precipitation  
Precipitation 0.00 in 0.05 in - ()
Sea Level Pressure  
Sea Level Pressure 30.10 in    
Wind  
Wind Speed 14 mph ()    
Max Wind Speed 22 mph    
Max Gust Speed 29 mph    
Visibility 7.1 miles    
Events Snow    
Averages and records for this station are not official NWS values.
T = Trace of Precipitation, MM = Missing Value Source: Averaged Metar Reports

Daily Weather History Graph

Daily Weather History Graph

Search for Another Location

Airport:

Trip Planner

Search our weather history database for the weather conditions in past years. The results will help you decide how hot, cold, wet, or windy it might be!

Date:

Astronomy

Mar. 23, 2013 Rise Set
Actual Time 5:59 AM CET 6:20 PM CET
Civil Twilight 5:26 AM CET 6:53 PM CET
Nautical Twilight 4:48 AM CET 7:31 PM CET
Astronomical Twilight 4:08 AM CET 8:11 PM CET
Moon 2:10 PM CET (3/23) 3:47 AM CET (3/23)
Length of Visible Light 13h 26m
Length of Day
12h 21m
Waxing Gibbous, 83% of the Moon is Illuminated
Mar 23
Waxing Gibbous
Mar 27
Full
Apr 3
Last Quarter
Apr 10
New
Apr 18
First Quarter

Hourly Weather History & Observations

Time (CET) Temp. Windchill Dew Point Humidity Pressure Visibility Wind Dir Wind Speed Gust Speed Precip Events Conditions
12:00 AM 26.6 °F 16.2 °F 21.2 °F 80% 30.06 in 6.2 mi East 11.5 mph - N/A   Overcast
12:30 AM 26.6 °F 15.2 °F 19.4 °F 74% 30.06 in 6.2 mi East 13.8 mph - N/A   Overcast
1:00 AM 26 °F - 18 °F 62% 30.16 in 12 mi East 11.2 mph - -   Partly Cloudy
1:00 AM 26.6 °F 15.2 °F 19.4 °F 74% 30.06 in 6.2 mi East 13.8 mph - N/A   Overcast
1:30 AM 26.6 °F 16.2 °F 19.4 °F 74% 30.06 in 6.2 mi East 11.5 mph - N/A   Overcast
2:00 AM 24.8 °F 13.4 °F 19.4 °F 80% 30.06 in 6.2 mi East 12.7 mph - N/A   Overcast
2:30 AM 24.8 °F 13.4 °F 19.4 °F 80% 30.06 in 6.2 mi East 12.7 mph - N/A   Overcast
3:00 AM 24.8 °F 12.9 °F 19.4 °F 80% 30.06 in 6.2 mi East 13.8 mph - N/A   Overcast
3:30 AM 24.8 °F 12.9 °F 19.4 °F 80% 30.06 in 6.2 mi East 13.8 mph - N/A   Overcast
4:00 AM 23.0 °F 10.1 °F 17.6 °F 80% 30.06 in 6.2 mi East 15.0 mph - N/A   Overcast
4:30 AM 23.0 °F 10.6 °F 17.6 °F 80% 30.06 in 6.2 mi East 13.8 mph - N/A   Overcast
5:00 AM 23.0 °F 12.4 °F 17.6 °F 80% 30.06 in 6.2 mi East 10.4 mph - N/A   Overcast
5:30 AM 23.0 °F 11.1 °F 17.6 °F 80% 30.06 in 6.2 mi East 12.7 mph - N/A   Overcast
6:00 AM 23.0 °F 10.1 °F 15.8 °F 74% 30.06 in 6.2 mi East 15.0 mph - N/A   Overcast
6:30 AM 23.0 °F 11.7 °F 15.8 °F 74% 30.09 in 6.2 mi East 11.5 mph - N/A   Overcast
7:00 AM 22 °F - 16 °F 68% 30.19 in 6 mi East 11.2 mph - - Snow Light Snow
7:00 AM 23.0 °F 11.1 °F 15.8 °F 74% 30.09 in 6.2 mi ENE 12.7 mph - N/A Snow Light Snow
7:30 AM 21.2 °F 8.3 °F 15.8 °F 80% 30.09 in 5.0 mi East 13.8 mph - N/A Snow Light Snow
8:00 AM 23.0 °F 10.6 °F 15.8 °F 74% 30.09 in 3.7 mi East 13.8 mph - N/A Snow Light Snow
8:30 AM 23.0 °F 9.2 °F 15.8 °F 74% 30.09 in 6.2 mi East 17.3 mph - N/A   Mostly Cloudy
9:00 AM 24.8 °F 11.9 °F 14.0 °F 64% 30.09 in 6.2 mi East 16.1 mph - N/A   Scattered Clouds
9:30 AM 24.8 °F 10.0 °F 12.2 °F 59% 30.09 in 6.2 mi East 21.9 mph - N/A   Partly Cloudy
10:00 AM 24.8 °F 10.3 °F 14.0 °F 64% 30.12 in 6.2 mi East 20.7 mph - N/A   Partly Cloudy
10:30 AM 24.8 °F 11.5 °F 15.8 °F 69% 30.09 in 6.2 mi East 17.3 mph - N/A   Partly Cloudy
11:00 AM 24.8 °F 11.5 °F 15.8 °F 69% 30.12 in 6.2 mi East 17.3 mph 28.8 mph N/A   Scattered Clouds
11:30 AM 26.6 °F 14.7 °F 15.8 °F 64% 30.09 in 6.2 mi ENE 15.0 mph - N/A   Scattered Clouds
12:00 PM 26.6 °F 14.7 °F 15.8 °F 64% 30.09 in 6.2 mi East 15.0 mph - N/A   Scattered Clouds
12:30 PM 28.4 °F 17.0 °F 15.8 °F 59% 30.09 in 6.2 mi East 15.0 mph - N/A   Partly Cloudy
1:00 PM 29 °F - 14 °F 39% 30.18 in 19 mi East 15.7 mph - -   Partly Cloudy
1:00 PM 28.4 °F 16.6 °F 14.0 °F 55% 30.09 in 6.2 mi ENE 16.1 mph - N/A   Partly Cloudy
1:30 PM 28.4 °F 17.0 °F 14.0 °F 55% 30.09 in 6.2 mi East 15.0 mph - N/A   Partly Cloudy
2:00 PM 28.4 °F 16.6 °F 12.2 °F 51% 30.09 in - East 16.1 mph - N/A   Clear
2:30 PM 28.4 °F 16.6 °F 14.0 °F 55% 30.09 in - ENE 16.1 mph - N/A   Clear
3:00 PM 28.4 °F 16.6 °F 14.0 °F 55% 30.09 in - ENE 16.1 mph - N/A   Clear
3:30 PM 28.4 °F 16.2 °F 12.2 °F 51% 30.09 in - East 17.3 mph - N/A   Clear
4:00 PM 28.4 °F 15.8 °F 10.4 °F 47% 30.09 in - ENE 18.4 mph - N/A   Clear
4:30 PM 26.6 °F 13.4 °F 8.6 °F 47% 30.06 in - ENE 18.4 mph - N/A   Clear
5:00 PM 26.6 °F 13.4 °F 8.6 °F 47% 30.09 in - East 18.4 mph - N/A   Clear
5:30 PM 24.8 °F 11.1 °F 10.4 °F 54% 30.09 in - ENE 18.4 mph - N/A   Clear
6:00 PM 24.8 °F 11.9 °F 10.4 °F 54% 30.09 in - East 16.1 mph - N/A   Clear
6:30 PM 23.0 °F 9.2 °F 8.6 °F 54% 30.12 in - East 17.3 mph - N/A   Clear
7:00 PM 22 °F - 6 °F 36% 30.22 in 19 mi East 17.9 mph - -   Partly Cloudy
7:00 PM 23.0 °F 9.2 °F 8.6 °F 54% 30.12 in - East 17.3 mph - N/A   Clear
7:30 PM 21.2 °F 6.8 °F 8.6 °F 58% 30.12 in - ENE 17.3 mph - N/A   Clear
8:00 PM 21.2 °F 6.4 °F 8.6 °F 58% 30.12 in - ENE 18.4 mph - N/A   Clear
8:30 PM 19.4 °F 4.5 °F 6.8 °F 58% 30.12 in - East 17.3 mph - N/A   Clear
9:00 PM 19.4 °F 5.0 °F 6.8 °F 58% 30.12 in - East 16.1 mph - N/A   Clear
9:30 PM 19.4 °F 4.1 °F 5.0 °F 54% 30.15 in - East 18.4 mph - N/A   Clear
10:00 PM 19.4 °F 4.1 °F 5.0 °F 54% 30.15 in - East 18.4 mph - N/A   Clear
10:30 PM 17.6 °F 1.7 °F 5.0 °F 58% 30.15 in - East 18.4 mph - N/A   Clear
11:00 PM 15.8 °F -0.6 °F 5.0 °F 62% 30.15 in - East 18.4 mph - N/A   Clear
11:30 PM 15.8 °F -0.6 °F 5.0 °F 62% 30.15 in - East 18.4 mph - N/A   Clear